map of GLH home
Great Circle Mapper logo
GLH - Airport
Location
City:  Greenville, Mississippi, United States
Name:Greenville Mid-Delta Airport
ICAO / IATA:KGLH / GLH
FAA:GLH

Details
Type:Airport (Part 139 Class I)
Use:Public/Civil
Latitude:3328'58"N (33.482881)
Longitude:9059'08"W (-90.985613)
Datum:WGS 1984
Elevation:131 ft (40 m)
Runways:2
Longest:8001 × 150 ft (2439 × 45.5 m), paved

Time
Time Zone:UTC-6 (DST-5)
Local Time:

Weather
METAR:KGLH 011953Z AUTO 22011KT 9SM -RA FEW043 SCT080 BKN100 28/24 A3000 RMK AO2 RAE08B47 SLP162 P0000 T02780239
TAF:KGLH 011736Z 0118/0218 19010KT P6SM VCSH SCT030 BKN050
FM020000 17007KT P6SM SCT050 SCT100
FM021000 18006KT 6SM BR BKN015
FM021500 20007KT P6SM BKN025
FM021630 22008KT P6SM SCT030

Related Locations
Nearby:
Farthest:MGV: 10945 mi / 17615 km
Margaret River, WA, AU

Find:

   beyond  
but within

Other Information
Maps:
Delays:
NOTAMs:
Links:
Sources:

  
flag of United States
flag of Mississippi
  

Airport Diagram

Airport diagram for GLH

Airport diagram PDF

Sectional Chart

Flight Planning
at skyvector.com

Satellite Image

Google Maps Satellite View

 

Copyright © 2004-2014 Karl L. Swartz. All rights reserved.
The Great Circle Mapper name and logo are trademarks of the Great Circle Mapper.
All other trademarks mentioned herein belong to their respective owners.
Please see credits for attibutions and further copyright information.

  Follow gcmap on Facebook Follow gcmap on Twitter

hCard Microformat

Geo Microformat